User: anonymous
Location: Caltech
(34.1382°N, 118.1253°W)
Time: 23:24:27
(UTC-07:00)
Language:

Cosmos 1833 Rocket - Orbit

View from above orbital plane
View from above orbital plane
View from above satellite
View from above satellite

Ground track
Ground track

The orbit data is extracted from the following two-line orbital elements,

1 17590U 87027B   14274.50197480  .00000313  00000-0  18053-3 0  7960
2 17590 071.0030 073.8840 0005388 348.6300 011.4701 14.16648317423951
Epoch (UTC): 01 October 2014 12:02:50
Eccentricity: 0.0005388
inclination: 71.0030°
perigee height: 833 km
apogee height: 840 km
right ascension of ascending node: 73.8840°
argument of perigee: 348.6300°
revolutions per day: 14.16648317
mean anomaly at epoch: 11.4701°
orbit number at epoch: 42395

The dashed part of the orbit path shows where the satellite is in the earth's shadow,  

DLR